Preview of NWS' New Version of Forecast
This preview is not operational and should not be used for support decisions.

Regional Weather Roundup (RWR)

Issued by National Weather Service (NWS)

                            
000
ASUS46 KSEW 170510
RWRWA 

WASHINGTON REGIONAL WEATHER ROUNDUP
NATIONAL WEATHER SERVICE SEATTLE WA
1000 PM PDT TUE JUL 16 2019

NOTE:"FAIR" INDICATES FEW OR NO CLOUDS BELOW 12,000 FEET WITH NO 
SIGNIFICANT WEATHER AND/OR OBSTRUCTIONS TO VISIBILITY.

WAZ507-509-555>559-170600-
SEATTLE, TACOMA, EVERETT, AND VICINITY
  
CITY           SKY/WX    TMP DP  RH WIND       PRES   REMARKS
EVERETT        MOCLDY    61  53  75 N6        29.96R                  
BOEING FIELD   MOCLDY    68  53  58 CALM      29.93S                  
RENTON         MOCLDY    71  56  58 SW5       29.93R                  
SEATAC AIRPORT MOCLDY    68  55  63 SW10      29.95S                  
JBLM-MCCHORD   MOCLDY    67  60  76 W9        29.96S                  
PUYALLUP       FAIR      66  61  82 CALM      29.97R                  
BREMERTON      MOCLDY    64  55  72 S7        29.95R                  
JBLM-FT LEWIS  NOT AVBL                                               
TACOMA NARROWS MOCLDY    65  55  70 SW8       29.96R                  
$$
 
WAZ001-503-506-510-514-515-170600-
NORTH INTERIOR
  
CITY           SKY/WX    TMP DP  RH WIND       PRES   REMARKS
BELLINGHAM     CLOUDY    66  56  70 S7        29.90F                  
FRIDAY HARBOR  CLOUDY    57  51  80 CALM      29.92S                  
EASTSOUND      CLOUDY    64  55  72 S8        29.90S                  
PORT ANGELES   MOCLDY    59  54  83 W9        29.94F                  
EDIZ HOOK      FAIR      58  53  83 W13       29.93F                  
PORT TOWNSEND  CLOUDY    64  55  72 VRB3      29.92S                  
NAS WHIDBEY    MOCLDY    60  52  74 SW5       29.96F                  
ARLINGTON      CLOUDY    63  54  72 CALM      29.94S                  
BURLINGTON     CLEAR     61  55  82 CALM      29.93S                  
$$
 
WAZ020-022-039-040-504-511-512-170600-
SOUTHWEST INTERIOR
  
CITY           SKY/WX    TMP DP  RH WIND       PRES   REMARKS
SHELTON        MOCLDY    64  56  75 SW14      29.94R                  
OLYMPIA        MOCLDY    63  57  81 SW7       29.97R                  
CHEHALIS       MOCLDY    64  59  82 CALM      29.99R                  
KELSO          MOCLDY    65  57  75 NW5       30.00S                  
VANCOUVER      PTCLDY    68  55  63 VRB6      29.98R                  
SCAPPOOSE, OR  PTCLDY    65  55  70 N3        29.97S                  
PORTLAND, OR   PTCLDY    69  55  60 N8        29.98S                  
$$
 
WAZ021-516-517-170600-
WASHINGTON COAST
  
CITY           SKY/WX    TMP DP  RH WIND       PRES   REMARKS
FORKS          CLOUDY    62  57  83 SW3       29.96F                  
HOQUIAM        CLOUDY    65  59  81 W10       29.99S                  
ASTORIA, OR    CLOUDY    63  58  83 W6        30.00S                  
$$
 
WAZ019-023-024-040-567>569-170600-
CASCADE MOUNTAINS AND COLUMBIA GORGE
  
CITY           SKY/WX    TMP DP  RH WIND       PRES   REMARKS
STAMPEDE PASS  PTCLDY    53  49  86 VRB5      30.02F                  
TROUTDALE, OR  PTCLDY    69  57  65 VRB3      29.97R                  
HOOD RIVER, OR PTCLDY    72  52  49 W3        29.93F                  
THE DALLES, OR CLEAR     73  52  47 W9        29.89R                  
$$

WAZ026-027-041>044-520-521-170600-
EAST SLOPES
  
CITY           SKY/WX    TMP DP  RH WIND       PRES   REMARKS
OMAK           PTCLDY    69  51  52 SW5       29.82S                  
WENATCHEE      CLEAR     72  46  39 W10       29.85S                  
ELLENSBURG     CLEAR     67  50  54 NW14      29.91F                  
YAKIMA         PTCLDY    71  50  47 NW8       29.89R                  
SUNNYSIDE ARPT CLEAR     70  58  65 CALM      29.85                   
YAKIMA TC      FAIR      71  47  42 NW6       29.88S                  
$$

WAZ028-034-035-170600-
COLUMBIA BASIN
  
CITY           SKY/WX    TMP DP  RH WIND       PRES   REMARKS
EPHRATA        CLEAR     68  49  50 W3        29.83F                  
MOSES LAKE     CLEAR     76  50  40 SW9       29.84F                  
PASCO          PTCLDY    72  55  55 NW6       29.83R                  
RICHLAND ARPT  PTCLDY    75  50  41 MISG      29.83                   
HERMISTON, OR  PTCLDY    76  47  35 SW15G22   29.85R                  
$$

WAZ036>038-170600-
NORTHEAST WASHINGTON
  
CITY           SKY/WX    TMP DP  RH WIND       PRES   REMARKS
SPOKANE GEIGER PTCLDY    68  52  56 CALM      29.91S                  
SPOKANE FELTS  PTCLDY    69  53  56 CALM      29.90S                  
FAIRCHILD AFB  CLEAR     64  51  63 CALM      29.91S                  
COEURDALENE,ID MOCLDY    63  52  67 NE6       29.92S                  
DEER PARK      PTCLDY    59  53  80 N5        29.91S                  
$$

WAZ029>033-170600-
SOUTHEAST WASHINGTON
  
CITY           SKY/WX    TMP DP  RH WIND       PRES   REMARKS
PULLMAN        CLEAR     60  45  57 CALM      29.94S                  
LEWISTON, ID   CLEAR     76  43  30 W3        29.88R                  
WALLA WALLA    PTCLDY    72  42  34 SE7       29.87S                  
PENDLETON, OR  PTCLDY    72  43  35 W12       29.89S                  
$$